Location: Nitra
(48.3167°N, 18.0833°E)
Time: 12:10:01
(UTC+01:00)

FALCON 9 DEB - Pass Details

Date: 24 September 2020
Orbit: 161 x 185 km, 53.0° (Epoch: 28 September)

Event Time Altitude Azimuth Distance (km) Brightness Sun altitude
Exits shadow 04:08:45 - 63° (ENE) 1,245 ? -24.5°
Enters shadow 05:01:46 -72° 275° (W) 12,394 ? -16.5°
Maximum altitude 05:39:04 34° 18° (NNE) 351 ? -10.5°
Sets 05:42:37 0° 99° (E) 1,601 ? -9.9°
